FW8918 Weather Reports


Display with metric or nautical units.
time (UTC)temp
F
wind
direction
speed
MPH
gust
MPH
rain 1hr
in
rain 24hr
in
rain mn
in
humidity
%
barometer
mb
20260507160054 55 321 4.0 9.0 0.00 0.00 0.00 68 1018.3
20260507154529 56 272 5.0 8.0 0.00 0.00 0.00 65 1018.3
20260507153032 55 333 5.0 8.0 0.00 0.00 0.00 67 1018.3
20260507151530 55 221 2.0 10.0 0.00 0.00 0.00 66 1018.4
20260507150030 55 274 5.0 8.0 0.00 0.00 0.00 70 1018.1
20260507144542 54 235 5.0 11.0 0.00 0.00 0.00 72 1018.2
20260507143032 55 315 4.0 10.0 0.00 0.00 0.00 69 1018.3
20260507141530 55 255 5.0 10.0 0.00 0.00 0.00 70 1018.2
20260507140034 56 305 4.0 11.0 0.00 0.00 0.00 70 1018.1
20260507134530 55 259 4.0 9.0 0.00 0.00 0.00 68 1018.3
20260507133028 55 250 5.0 9.0 0.00 0.00 0.00 68 1018.3
20260507131531 55 316 4.0 9.0 0.00 0.00 0.00 69 1018.3
20260507130036 55 229 4.0 9.0 0.00 0.00 0.00 69 1018.3
20260507124527 55 231 5.0 7.0 0.00 0.00 0.00 65 1018.2
20260507123038 55 184 4.0 8.0 0.00 0.00 0.00 70 1018.0
20260507121528 55 233 5.0 9.0 0.00 0.00 0.00 69 1018.1
20260507120030 55 236 4.0 8.0 0.00 0.00 0.00 69 1018.2
20260507114605 54 321 4.0 9.0 0.00 0.00 0.00 71 1018.1
20260507113030 55 229 4.0 9.0 0.00 0.00 0.00 71 1018.2
20260507111537 55 243 4.0 10.0 0.00 0.00 0.00 71 1018.1
20260507110031 54 212 4.0 7.0 0.00 0.00 0.00 72 1018.1
20260507104528 53 251 3.0 8.0 0.00 0.00 0.00 71 1018.1
20260507103032 53 269 4.0 8.0 0.00 0.00 0.00 74 1017.9
20260507101530 53 203 3.0 8.0 0.00 0.00 0.00 75 1017.9
20260507100033 52 178 4.0 7.0 0.00 0.00 0.00 76 1017.6
20260507094531 52 247 4.0 7.0 0.00 0.00 0.00 76 1017.6
20260507093040 52 276 3.0 6.0 0.00 0.00 0.00 77 1017.4
20260507091530 53 255 4.0 8.0 0.00 0.00 0.00 75 1017.3
20260507090028 52 200 3.0 7.0 0.00 0.00 0.00 77 1017.2
20260507084531 51 248 2.0 7.0 0.00 0.00 0.00 78 1017.4
20260507083030 51 269 3.0 6.0 0.00 0.00 0.00 77 1017.2
20260507081536 51 250 2.0 5.0 0.00 0.00 0.00 77 1017.1
20260507080030 51 238 3.0 5.0 0.00 0.00 0.00 79 1017.0
20260507074528 50 235 1.0 4.0 0.00 0.00 0.00 79 1016.8
20260507073028 51 207 1.0 4.0 0.00 0.00 0.00 78 1016.6
20260507071530 51 167 2.0 5.0 0.00 0.00 0.00 78 1016.5
20260507070030 51 173 2.0 6.0 0.00 0.00 0.00 78 1016.4
20260507064530 50 214 3.0 7.0 0.00 0.00 0.00 78 1016.4
20260507063030 49 150 1.0 3.0 0.00 0.00 0.00 79 1016.2
20260507061529 47 0 0.0 1.0 0.00 0.00 0.00 79 1016.1
20260507060026 46 0 0.0 0.0 0.00 0.00 0.00 78 1016.0
20260507054528 44 0 0.0 2.0 0.00 0.00 0.00 77 1015.9
20260507053030 43 0 0.0 1.0 0.00 0.00 0.00 76 1015.9
20260507051528 42 0 0.0 1.0 0.00 0.00 0.00 77 1015.7
20260507050036 41 60 0.0 3.0 0.00 0.00 0.00 78 1015.6
20260507044531 41 54 0.0 2.0 0.00 0.00 0.00 78 1015.5
20260507043028 40 55 0.0 3.0 0.00 0.00 0.00 79 1015.4
20260507041545 40 0 0.0 1.0 0.00 0.00 0.00 79 1015.3
20260507040028 40 0 0.0 0.0 0.00 0.00 0.00 79 1015.3
20260507034530 40 0 0.0 1.0 0.00 0.00 0.00 78 1015.2
20260507033032 40 56 0.0 1.0 0.00 0.00 0.00 77 1015.1
20260507031529 41 56 0.0 3.0 0.00 0.00 0.00 76 1015.0
20260507030030 42 0 0.0 3.0 0.00 0.00 0.00 75 1015.1
20260507024530 42 46 0.0 4.0 0.00 0.00 0.00 75 1015.1
20260507023027 42 59 2.0 4.0 0.00 0.00 0.00 75 1014.9
20260507021528 41 58 1.0 2.0 0.00 0.00 0.00 75 1014.6
20260507020029 42 0 0.0 0.0 0.00 0.00 0.00 75 1014.6
20260507014547 43 0 0.0 2.0 0.00 0.00 0.00 74 1014.6
20260507013041 43 0 0.0 3.0 0.00 0.00 0.00 73 1014.4
20260507011537 43 56 1.0 4.0 0.00 0.00 0.00 73 1014.4
20260507010032 43 57 0.0 2.0 0.00 0.00 0.00 72 1014.3
20260507004529 43 51 1.0 5.0 0.00 0.00 0.00 71 1014.2
20260507003034 44 61 2.0 4.0 0.00 0.00 0.00 70 1014.3
20260507001530 44 50 2.0 4.0 0.00 0.00 0.00 68 1014.2
20260507000032 45 60 2.0 5.0 0.00 0.00 0.00 66 1014.1
20260506234530 45 52 2.0 6.0 0.00 0.00 0.00 66 1014.2
20260506233032 46 53 3.0 6.0 0.00 0.00 0.00 67 1014.1
20260506230031 46 64 3.0 7.0 0.00 0.00 0.00 68 1014.0
20260506224528 46 58 2.0 7.0 0.00 0.00 0.00 67 1013.9
20260506223028 47 62 3.0 7.0 0.00 0.00 0.00 67 1013.9
20260506221530 47 47 3.0 5.0 0.00 0.00 0.00 68 1014.0
20260506220029 47 46 3.0 7.0 0.00 0.00 0.00 68 1013.8
20260506214531 47 42 2.0 8.0 0.00 0.00 0.00 70 1013.7
20260506213030 47 58 3.0 8.0 0.00 0.00 0.00 71 1013.6
20260506211528 47 41 2.0 6.0 0.00 0.00 0.00 72 1013.4
20260506210036 47 55 2.0 5.0 0.00 0.00 0.00 73 1013.4
20260506204528 47 53 2.0 6.0 0.00 0.00 0.00 72 1013.5
20260506203037 47 53 1.0 5.0 0.00 0.00 0.00 72 1013.3
20260506201531 48 49 2.0 8.0 0.00 0.00 0.00 71 1013.1
20260506200032 48 39 2.0 8.0 0.00 0.00 0.00 71 1013.0
20260506194530 48 35 2.0 8.0 0.00 0.00 0.00 72 1012.8
20260506193029 48 52 2.0 6.0 0.00 0.00 0.00 72 1012.9
20260506191529 49 58 1.0 7.0 0.00 0.00 0.00 72 1012.7
20260506190031 49 45 2.0 6.0 0.00 0.00 0.00 71 1012.7
20260506184530 49 27 3.0 9.0 0.00 0.00 0.00 69 1012.5
20260506183030 50 43 3.0 8.0 0.00 0.00 0.00 67 1012.5
20260506181534 51 12 4.0 9.0 0.00 0.00 0.00 64 1012.4
20260506180038 51 17 4.0 10.0 0.00 0.00 0.00 63 1012.2
20260506174529 51 15 4.0 11.0 0.00 0.00 0.00 63 1012.2
20260506173028 51 336 3.0 9.0 0.00 0.00 0.00 62 1012.2
20260506171544 52 24 3.0 8.0 0.00 0.00 0.00 60 1012.1
20260506170027 54 13 4.0 11.0 0.00 0.00 0.00 57 1012.1
20260506164528 55 66 4.0 11.0 0.00 0.00 0.00 57 1012.1
20260506163031 55 283 3.0 10.0 0.00 0.00 0.00 58 1011.9
20260506161539 55 64 2.0 11.0 0.00 0.00 0.00 59 1011.9